Regional Weather Roundup
Issued by NWS

Home | Current Version | Previous Version | Graphics & Text | Print | Product List | Glossary On
Versions: 1 2 3 4 5 6 7 8 9 10 11 12 13 14 15 16 17 18 19 20 21 22 23 24 25 26 27 28 29 30 31 32 33 34 35 36 37 38 39 40 41 42 43 44 45 46 47 48 49 50
000
ASUS43 KLOT 070112
RWRIL

ILLINOIS REGIONAL WEATHER ROUNDUP
NATIONAL WEATHER SERVICE CHICAGO/ROMEOVILLE IL
800 PM CDT WED MAY 06 2015

NOTE: "FAIR" INDICATES FEW OR NO CLOUDS BELOW 12,000 FEET WITH NO
SIGNIFICANT WEATHER AND/OR OBSTRUCTIONS TO VISIBILITY.

* THESE STATIONS ARE NOT UNDER NWS QUALITY CONTROL. THEY ALSO MAY NOT
  REPORT WEATHER SUCH AS PRECIPITATION OR FOG.

ILZ001-002-007-009-015-016-024-070200-
NORTHWEST ILLINOIS

CITY           SKY/WX    TMP DP  RH WIND       PRES   REMARKS
MOLINE         PTCLDY    70  59  68 CALM      29.98F
STERLING*      MOCLDY    75  55  50 SE7       30.00S
SAVANNA*       MOCLDY    71  59  65 W3        30.00F
$$

ILZ003-004-008-010-011-017-018-070200-
NORTH CENTRAL ILLINOIS

CITY           SKY/WX    TMP DP  RH WIND       PRES   REMARKS
ROCKFORD       MOCLDY    73  56  54 SE7       30.03F
FREEPORT*      MOCLDY    69  55  60 SE6       30.02F
ROCHELLE*      MOCLDY    71  61  70 SE8       30.03S
DE KALB*       MOCLDY    70  56  61 SE6       30.04F
PERU*          MOCLDY    76  53  44 S9        30.02S
$$

ILZ005-006-012>014-019>023-070200-
NORTHEAST ILLINOIS

CITY           SKY/WX    TMP DP  RH WIND       PRES   REMARKS
CHICAGO-OHARE  MOCLDY    62  54  74 NE7       30.06S
CHICAGO-MIDWAY MOCLDY    64  54  69 E5        30.06S
AURORA         MOCLDY    73  54  51 SE6       30.04S
LANSING*       MOCLDY    65  54  67 NE5       30.06S
JOLIET*        MOCLDY    75  56  52 CALM      30.04S
WAUKEGAN       FOG       51  51 100 NE3       30.07S VSB 1/2
DUPAGE AIRPORT MOCLDY    68  58  70 E6        30.05S HAZE
KANKAKEE*      CLOUDY    77  57  51 SE3       30.06R
WHEELING       MOCLDY    57  52  83 NE5       30.08F
MORRIS*        MOCLDY    75  54  47 SE5       30.02F
ROMEOVILLE*    MOCLDY    69  58  67 E7        30.05S
NORTHERLY ISL    N/A     51  48  89 N3          N/A
$$

LMZ740>746-070200-
SOUTHERN LAKE MICHIGAN

STATION/POSITION SKY/WX   TEMP    WIND        PRES    VSBY  WAVE
                          AIR SEA DIR/SP/G                  HT/PER
                          (F)     (DEG/KT/KT) (MB)    (MI)  (FT/S)
HARRISON CRIB              47     350/  7/  7   N/A
BURNHAM HARBOR             50      10/  4/  5   N/A
CALUMET HARBOR             51     360/  3/  4   N/A
BURNS HARBOR               57      70/ 10/ 12 1018.6F
MICHIGAN CITY              63      40/ 16/ 17   N/A
MICHIGAN CITY 6N           56 54   80/  6/  8   N/A           1
ST. JOSEPH                 57 52   50/  8/  8   N/A           1/ 2
$$

ILZ025>027-034>036-040-047-049-050-058-095>099-070200-
WEST-CENTRAL ILLINOIS

CITY           SKY/WX    TMP DP  RH WIND       PRES   REMARKS
QUINCY         PTCLDY    73  58  59 SE7       29.96F
GALESBURG*     PTCLDY    68  60  76 CALM      29.99S
MACOMB*        MOCLDY    70  64  79 E5        30.00S
JACKSONVILLE*  CLEAR     81  52  36 S9        30.00R HX  80
PITTSFIELD*    CLEAR     79  49  35 SE8       29.99S
$$

ILZ028>032-037-038-041>044-048-051>054-059>061-070200-
CENTRAL ILLINOIS

CITY           SKY/WX    TMP DP  RH WIND       PRES   REMARKS
PONTIAC        MOCLDY    76  58  54 SE6       30.04S
BLOOMINGTON    PTCLDY    73  56  55 S9        30.05S
DECATUR        PTCLDY    78  51  38 S10       30.04R
PEORIA         CLEAR     78  52  40 S7        30.00S
LACON*         MOCLDY    76  52  42 SE7       30.00S
LINCOLN*       CLEAR     79  50  36 S8        29.99S
SPRINGFIELD    CLEAR     79  52  38 S13       30.01S
TAYLORVILLE    CLEAR     75  54  46 S7        30.03S
$$

ILZ033-039-045-046-055>057-062-063-070200-
EAST-CENTRAL ILLINOIS

CITY           SKY/WX    TMP DP  RH WIND       PRES   REMARKS
CHAMPAIGN      MOCLDY    79  49  34 S12       30.05S
DANVILLE*      PTCLDY    76  53  43 S5        30.05R
RANTOUL*       MOCLDY    81  52  37 S9        30.06R HX  80
MATTOON        PTCLDY    77  53  43 S5        30.05S
PARIS*         PTCLDY    75  54  47 SE3       30.07S
$$

ILZ079-100>102-070200-
SOUTHWEST ILLINOIS

CITY           SKY/WX    TMP DP  RH WIND       PRES   REMARKS
ALTON          CLEAR     75  52  43 S9        30.01S
BELLEVILLE     CLEAR     74  56  52 VRB3      30.01R
CAHOKIA*       CLEAR     77  51  40 SE6       30.00S
SPARTA*        CLEAR     75  56  51 SE3       30.04S
$$

ILZ064>066-069>071-074>076-080>082-084>086-088>090-092>094-070200-
SOUTH-CENTRAL ILLINOIS

CITY           SKY/WX    TMP DP  RH WIND       PRES   REMARKS
CARBONDALE     CLEAR     76  54  46 SE7       30.03S
CAIRO*         CLEAR     76  55  47 SE3       30.04S
EFFINGHAM*     CLEAR     77  49  36 SE3       30.06S
MARION         CLEAR     75  57  53 SE3       30.05S
MT. VERNON     CLEAR    N/A N/A N/A CALM      30.05S
CENTRALIA*     CLEAR     73  54  52 S5        30.04S
SALEM*         CLEAR     81  51  35 CALM      30.05S HX  80
METROPOLIS*    CLEAR     76  58  52 CALM      30.04S
$$

ILZ067-068-072-073-078-083-087-091-070200-
SOUTHEAST ILLINOIS

CITY           SKY/WX    TMP DP  RH WIND       PRES   REMARKS
LAWRENCEVILLE  CLEAR     74  57  55 SE9       30.06S
FLORA*         CLEAR     74  55  50 S3        30.06R
FAIRFIELD*     CLEAR     77  56  48 S3        30.04S
HARRISBURG*    CLEAR     77  56  48 CALM      30.06S
ROBINSON*      CLEAR     77  52  41 S6        30.07S
CARMI*         CLEAR     75  53  47 S5        30.05S
$$

ABBREVIATIONS USED IN REMARKS
   TC - TEMPERATURE IN CELSIUS
  WCI - WIND CHILL INDEX
   HX - HEAT INDEX
  VSB - VISIBILITY
$$



USA.gov is the U.S. government's official web portal to all federal, state and local government web resources and services.